When you browse on this site, cookies collect data to enhance your experience and personalize the content and advertising you see.
Visit our Privacy Policy to learn more. By continuing to use the site, you agree to this use of cookies and data.
  • In Schweiz
  • Länderverzeichnis
  • Für 7 Tage
  • Wassertemperatur
  • Satellitenkarten
  • Wetterkarte
  • Widgets
  • user-avatar
    Anmelden

    Stündliche Wetter Tolokun'

    Heute, 26 April, Freitag

    Zeit Temperatur Niederschläge Wind Luftdruck Luftfeuchtigkeit
    00:00 +13°C° 0 mm 2 m/S 758 mmHg 59%
    01:00 +13°C° 0 mm 2 m/S 758 mmHg 61%
    02:00 +12°C° 0 mm 1 m/S 757 mmHg 62%
    03:00 +12°C° 0 mm 2 m/S 757 mmHg 63%
    04:00 +10°C° 0 mm 2 m/S 757 mmHg 64%
    05:00 +10°C° 0 mm 2 m/S 757 mmHg 65%
    06:00 +12°C° 0 mm 2 m/S 757 mmHg 61%
    07:00 +14°C° 0 mm 2 m/S 757 mmHg 57%
    08:00 +16°C° 0 mm 2 m/S 757 mmHg 53%
    09:00 +17°C° 0 mm 3 m/S 756 mmHg 47%
    10:00 +19°C° 0 mm 3 m/S 756 mmHg 41%
    11:00 +20°C° 0 mm 4 m/S 756 mmHg 35%
    12:00 +21°C° 0 mm 4 m/S 756 mmHg 34%
    13:00 +21°C° 0 mm 4 m/S 755 mmHg 33%
    14:00 +22°C° 0 mm 4 m/S 755 mmHg 33%
    15:00 +22°C° 0 mm 4 m/S 755 mmHg 36%
    16:00 +22°C° 0 mm 4 m/S 754 mmHg 40%
    17:00 +22°C° 0 mm 3 m/S 754 mmHg 43%
    18:00 +20°C° 0 mm 3 m/S 754 mmHg 50%
    19:00 +18°C° 0 mm 3 m/S 754 mmHg 57%
    20:00 +16°C° 0 mm 3 m/S 754 mmHg 63%
    21:00 +16°C° 0 mm 3 m/S 754 mmHg 65%
    22:00 +16°C° 0 mm 3 m/S 754 mmHg 66%
    23:00 +14°C° 0 mm 3 m/S 754 mmHg 67%

    Morgen, 27 April, Samstag

    Zeit Temperatur Niederschläge Wind Luftdruck Luftfeuchtigkeit
    00:00 +14°C° 0 mm 3 m/S 753 mmHg 67%
    01:00 +13°C° 0 mm 3 m/S 753 mmHg 68%
    02:00 +13°C° 0 mm 3 m/S 753 mmHg 69%
    03:00 +13°C° 0 mm 3 m/S 752 mmHg 69%
    04:00 +12°C° 0 mm 3 m/S 752 mmHg 69%
    05:00 +12°C° 0 mm 3 m/S 752 mmHg 69%
    06:00 +13°C° 0 mm 3 m/S 751 mmHg 65%
    07:00 +14°C° 0 mm 4 m/S 751 mmHg 61%
    08:00 +15°C° 0 mm 4 m/S 751 mmHg 56%
    09:00 +17°C° 0 mm 4 m/S 751 mmHg 54%
    10:00 +17°C° 0 mm 5 m/S 751 mmHg 52%
    11:00 +19°C° 0 mm 5 m/S 750 mmHg 50%
    12:00 +19°C° 0.1 mm 5 m/S 750 mmHg 52%
    13:00 +20°C° 0.1 mm 5 m/S 750 mmHg 55%
    14:00 +20°C° 0.1 mm 5 m/S 749 mmHg 58%
    15:00 +21°C° 0.2 mm 5 m/S 749 mmHg 58%
    16:00 +21°C° 0.2 mm 5 m/S 749 mmHg 59%
    17:00 +21°C° 0.2 mm 4 m/S 748 mmHg 60%
    18:00 +20°C° 0.5 mm 4 m/S 748 mmHg 67%
    19:00 +19°C° 0.5 mm 4 m/S 748 mmHg 74%
    20:00 +17°C° 0.5 mm 3 m/S 748 mmHg 81%
    21:00 +17°C° 0 mm 3 m/S 748 mmHg 82%
    22:00 +17°C° 0 mm 3 m/S 748 mmHg 83%
    23:00 +16°C° 0 mm 3 m/S 748 mmHg 84%

    übermorgen, 28 April, Sonntag

    Zeit Temperatur Niederschläge Wind Luftdruck Luftfeuchtigkeit
    00:00 +16°C° 0 mm 3 m/S 747 mmHg 85%
    01:00 +15°C° 0 mm 4 m/S 747 mmHg 85%
    02:00 +15°C° 0 mm 4 m/S 747 mmHg 86%
    03:00 +15°C° 0.2 mm 4 m/S 747 mmHg 87%
    04:00 +14°C° 0.2 mm 4 m/S 747 mmHg 88%
    05:00 +14°C° 0.2 mm 4 m/S 747 mmHg 89%
    06:00 +14°C° 0.3 mm 3 m/S 747 mmHg 89%
    07:00 +16°C° 0.3 mm 3 m/S 747 mmHg 89%
    08:00 +16°C° 0.3 mm 2 m/S 747 mmHg 89%
    09:00 +17°C° 0.3 mm 3 m/S 747 mmHg 86%
    10:00 +18°C° 0.3 mm 3 m/S 747 mmHg 83%
    11:00 +18°C° 0.3 mm 3 m/S 747 mmHg 79%
    12:00 +19°C° 0.6 mm 2 m/S 747 mmHg 77%
    13:00 +19°C° 0.6 mm 2 m/S 747 mmHg 74%
    14:00 +20°C° 0.6 mm 2 m/S 747 mmHg 71%
    15:00 +19°C° 0.6 mm 2 m/S 747 mmHg 76%
    16:00 +19°C° 0.6 mm 1 m/S 747 mmHg 80%
    17:00 +19°C° 0.6 mm 1 m/S 747 mmHg 84%
    18:00 +18°C° 0.1 mm 1 m/S 747 mmHg 87%
    19:00 +16°C° 0.1 mm 1 m/S 748 mmHg 89%
    20:00 +14°C° 0.1 mm 0 m/S 748 mmHg 91%
    21:00 +15°C° 0 mm 1 m/S 748 mmHg 92%
    22:00 +15°C° 0 mm 1 m/S 749 mmHg 93%
    23:00 +15°C° 0 mm 1 m/S 749 mmHg 94%

    29 April, Montag

    Zeit Temperatur Niederschläge Wind Luftdruck Luftfeuchtigkeit
    00:00 +14°C° 0.2 mm 2 m/S 749 mmHg 94%
    01:00 +14°C° 0.2 mm 2 m/S 749 mmHg 94%
    02:00 +13°C° 0.2 mm 3 m/S 749 mmHg 94%
    03:00 +13°C° 0.7 mm 3 m/S 750 mmHg 93%
    04:00 +12°C° 0.7 mm 4 m/S 750 mmHg 93%
    05:00 +12°C° 0.7 mm 4 m/S 750 mmHg 93%
    06:00 +12°C° 1.2 mm 4 m/S 750 mmHg 92%
    07:00 +10°C° 1.2 mm 5 m/S 750 mmHg 91%
    08:00 +10°C° 1.2 mm 5 m/S 751 mmHg 91%
    09:00 +10°C° 1.5 mm 5 m/S 751 mmHg 90%
    10:00 +9°C° 1.5 mm 5 m/S 751 mmHg 90%
    11:00 +9°C° 1.5 mm 6 m/S 751 mmHg 90%
    12:00 +9°C° 1.3 mm 6 m/S 751 mmHg 90%
    13:00 +8°C° 1.3 mm 6 m/S 751 mmHg 90%
    14:00 +8°C° 1.3 mm 6 m/S 751 mmHg 90%
    15:00 +8°C° 0.5 mm 5 m/S 751 mmHg 90%
    16:00 +8°C° 0.5 mm 5 m/S 751 mmHg 89%
    17:00 +8°C° 0.5 mm 5 m/S 751 mmHg 89%
    18:00 +8°C° 0.2 mm 5 m/S 751 mmHg 90%
    19:00 +8°C° 0.2 mm 5 m/S 751 mmHg 90%
    20:00 +8°C° 0.2 mm 5 m/S 751 mmHg 91%
    21:00 +8°C° 0.2 mm 5 m/S 751 mmHg 91%
    22:00 +8°C° 0.2 mm 5 m/S 751 mmHg 92%
    23:00 +8°C° 0.2 mm 5 m/S 751 mmHg 92%

    30 April, Dienstag

    Zeit Temperatur Niederschläge Wind Luftdruck Luftfeuchtigkeit
    00:00 +8°C° 0.1 mm 5 m/S 751 mmHg 92%
    01:00 +8°C° 0.1 mm 5 m/S 750 mmHg 92%
    02:00 +8°C° 0.1 mm 5 m/S 750 mmHg 92%
    03:00 +8°C° 0.4 mm 5 m/S 750 mmHg 92%
    04:00 +8°C° 0.4 mm 5 m/S 749 mmHg 92%
    05:00 +8°C° 0.4 mm 4 m/S 749 mmHg 92%
    06:00 +8°C° 1.1 mm 5 m/S 749 mmHg 92%
    07:00 +7°C° 1.1 mm 5 m/S 749 mmHg 92%
    08:00 +7°C° 1.1 mm 5 m/S 749 mmHg 92%
    09:00 +7°C° 2.7 mm 5 m/S 749 mmHg 92%
    10:00 +7°C° 2.7 mm 5 m/S 749 mmHg 93%
    11:00 +7°C° 2.7 mm 5 m/S 749 mmHg 93%
    12:00 +7°C° 1.7 mm 5 m/S 749 mmHg 93%
    13:00 +7°C° 1.7 mm 5 m/S 748 mmHg 92%
    14:00 +7°C° 1.7 mm 5 m/S 748 mmHg 92%
    15:00 +7°C° 0.3 mm 5 m/S 748 mmHg 91%
    16:00 +7°C° 0.3 mm 5 m/S 748 mmHg 91%
    17:00 +8°C° 0.3 mm 5 m/S 747 mmHg 90%
    18:00 +8°C° 0.1 mm 4 m/S 748 mmHg 91%
    19:00 +7°C° 0.1 mm 4 m/S 748 mmHg 92%
    20:00 +7°C° 0.1 mm 4 m/S 748 mmHg 93%
    21:00 +7°C° 0 mm 4 m/S 747 mmHg 93%
    22:00 +7°C° 0 mm 4 m/S 747 mmHg 94%
    23:00 +6°C° 0 mm 4 m/S 747 mmHg 95%

    1 Mai, Mittwoch

    Zeit Temperatur Niederschläge Wind Luftdruck Luftfeuchtigkeit
    00:00 +6°C° 0 mm 4 m/S 747 mmHg 94%
    01:00 +6°C° 0 mm 4 m/S 747 mmHg 94%
    02:00 +6°C° 0 mm 4 m/S 747 mmHg 93%
    03:00 +5°C° 0 mm 4 m/S 747 mmHg 93%
    04:00 +5°C° 0 mm 4 m/S 747 mmHg 92%
    05:00 +5°C° 0 mm 4 m/S 747 mmHg 92%
    06:00 +6°C° 0 mm 4 m/S 747 mmHg 89%
    07:00 +6°C° 0 mm 4 m/S 747 mmHg 85%
    08:00 +7°C° 0 mm 5 m/S 747 mmHg 82%
    09:00 +7°C° 0 mm 5 m/S 747 mmHg 80%
    10:00 +8°C° 0 mm 4 m/S 747 mmHg 79%
    11:00 +8°C° 0 mm 4 m/S 747 mmHg 77%
    12:00 +10°C° 0 mm 4 m/S 746 mmHg 72%
    13:00 +11°C° 0 mm 4 m/S 746 mmHg 67%
    14:00 +12°C° 0 mm 3 m/S 746 mmHg 62%
    15:00 +12°C° 0.1 mm 3 m/S 746 mmHg 61%
    16:00 +13°C° 0.1 mm 3 m/S 746 mmHg 59%
    17:00 +13°C° 0.1 mm 3 m/S 746 mmHg 57%
    18:00 +12°C° 0.1 mm 3 m/S 746 mmHg 63%
    19:00 +10°C° 0.1 mm 2 m/S 746 mmHg 69%
    20:00 +9°C° 0.1 mm 2 m/S 746 mmHg 75%
    21:00 +8°C° 0.1 mm 2 m/S 746 mmHg 78%
    22:00 +8°C° 0.1 mm 2 m/S 746 mmHg 80%
    23:00 +7°C° 0.1 mm 2 m/S 746 mmHg 83%
    Mehr zeigen